Hourly Data Report for September 30, 2017

All times are specified in Local Standard Time (LST). Add 1 hour to adjust for Daylight Saving Time where and when it is observed.

CHARLOTTETOWN A
PRINCE EDWARD ISLAND

46°17'21.000" N
63°07'09.000" W
48.50 m
8300301
71706
YYG

Download Data

Hourly Data (September 2017)
Hourly Data Report for September 30, 2017
Temp Definition
°C
Dew Point Temp Definition
°C
Rel Hum Definition
%
Wind Dir Definition
10's deg

Wind Spd Definition
km/h
Visibility Definition
km
Stn Press Definition
kPa
Hmdx Definition


Wind Chill Definition


Weather Definition


TIME
00:00 Legend Double Dagger 8.3 7.1 92 36 10 16.1 101.09     Rain Showers
01:00 Legend Double Dagger 8.6 5.9 84 1 16 19.3 101.14     Rain Showers
02:00 Legend Double Dagger 7.8 4.9 82 33 9 24.1 101.18     Rain Showers
03:00 Legend Double Dagger 8.1 5.2 82 33 11 24.1 101.22     Rain Showers
04:00 Legend Double Dagger 6.7 4.9 88 35 8 24.1 101.28     LegendNANA
05:00 Legend Double Dagger 6.8 4.9 88 1 8 24.1 101.35     Rain Showers
06:00 Legend Double Dagger 7.0 5.1 88 35 9 24.1 101.41     Rain Showers
07:00 Legend Double Dagger 6.9 4.5 85 35 7 24.1 101.52     LegendNANA
08:00 Legend Double Dagger 8.3 6.2 86 34 11 24.1 101.58     Rain Showers
09:00 Legend Double Dagger 9.7 3.9 67 36 12 24.1 101.65     LegendNANA
10:00 Legend Double Dagger 10.7 3.8 62 1 17 24.1 101.69     LegendNANA
11:00 Legend Double Dagger 10.0 3.6 64 1 14 24.1 101.73     Mostly Cloudy
12:00 Legend Double Dagger 10.7 3.0 59 36 18 24.1 101.76     LegendNANA
13:00 Legend Double Dagger 10.4 3.0 60 2 20 24.1 101.75     LegendNANA
14:00 Legend Double Dagger 10.5 3.3 61 36 16 24.1 101.76     Mostly Cloudy
15:00 Legend Double Dagger 10.5 2.8 59 34 14 24.1 101.76     LegendNANA
16:00 Legend Double Dagger 10.1 2.2 58 33 15 24.1 101.75     LegendNANA
17:00 Legend Double Dagger 9.1 1.9 61 34 9 24.1 101.78     Mainly Clear
18:00 Legend Double Dagger 7.4 1.9 68 30 9 24.1 101.80     LegendNANA
19:00 Legend Double Dagger 5.7 1.1 73 31 8 24.1 101.85     LegendNANA
20:00 Legend Double Dagger 5.8 1.6 74 27 8 24.1 101.87     Mainly Clear
21:00 Legend Double Dagger 5.4 0.8 72 25 7 24.1 101.86     LegendNANA
22:00 Legend Double Dagger 4.9 1.1 76 26 7 24.1 101.84     LegendNANA
23:00 Legend Double Dagger 2.7 0.2 84 23 6 24.1 101.80     Clear

Notes on Data Quality.

Legend

  • E = Estimated
  • M = Missing
  • NA = Not Available
  • ‡ = Partner data that is not subject to review by the National Climate Archives
Date modified: